Du Bois, PA

7:40 AM EDT on September 24, 2017 (GMT -0400)
Du Bois-Jefferson County

Weather History for KDUJ - February, 2015

Change the Weather History Date:

Thursday, February 12, 2015

  Actual Average Record
Temperature  
Mean Temperature 16 °F 26 °F  
Max Temperature 30 °F 34 °F 59 °F (1984)
Min Temperature 2 °F 18 °F -7 °F (1995)
Degree Days  
Heating Degree Days 49 39  
Month to date heating degree days 506 481  
Since 1 July heating degree days 4424 4425  
Cooling Degree Days 0 0  
Month to date cooling degree days 0 0  
Year to date cooling degree days 0 0  
Moisture  
Dew Point 10 °F    
Average Humidity 74    
Maximum Humidity 92    
Minimum Humidity 56    
Precipitation  
Precipitation 0.01 in 0.09 in 0.46 in (2017)
Month to date precipitation 0.87 0.97  
Sea Level Pressure  
Sea Level Pressure 29.89 in    
Wind  
Wind Speed 15 mph (WNW)    
Max Wind Speed 28 mph    
Max Gust Speed 40 mph    
Visibility 3 miles    
Events Fog , Snow    
T = Trace of Precipitation, MM = Missing Value Source: NWS Daily Summary

Daily Weather History Graph

Daily Weather History Graph

Search for Another Location

Airport or City:

Trip Planner

Search our weather history database for the weather conditions in past years. The results will help you decide how hot, cold, wet, or windy it might be!

Date:

Astronomy

Feb. 12, 2015 Rise Set
Actual Time 7:14 AM EST 5:45 PM EST
Civil Twilight 6:45 AM EST 6:14 PM EST
Nautical Twilight 6:13 AM EST 6:46 PM EST
Astronomical Twilight 5:41 AM EST 7:18 PM EST
Moon 1:15 AM EST (2/12) 11:39 AM EST (2/12)
Length of Visible Light 11h 28m
Length of Day
10h 31m
Last Quarter, 44% of the Moon is Illuminated
Feb 12
Last Quarter
Feb 18
New
Feb 25
First Quarter
Mar 5
Full
Mar 13
Last Quarter

Hourly Weather History & Observations

Time (EST) Temp. Windchill Dew Point Humidity Pressure Visibility Wind Dir Wind Speed Gust Speed Precip Events Conditions
12:42 AM 30.0 °F 20.0 °F 28.0 °F 92% 29.76 in 1.8 mi WSW 12.7 mph - 0.00 in Snow Light Snow
12:53 AM 30.0 °F 20.0 °F 28.0 °F 92% 29.81 in 2.0 mi WSW 12.7 mph - 0.01 in Snow Light Snow
1:08 AM 30.0 °F 20.0 °F 28.0 °F 92% 29.75 in 3.0 mi WSW 12.7 mph - 0.00 in Snow Light Snow
1:53 AM 30.0 °F 20.0 °F 28.0 °F 92% 29.79 in 4.0 mi WSW 12.7 mph - 0.00 in   Overcast
2:28 AM 30.0 °F 19.5 °F 27.0 °F 88% 29.73 in 1.8 mi West 13.8 mph - 0.00 in Snow Light Snow
2:53 AM 28.0 °F 16.5 °F 26.1 °F 92% 29.79 in 1.5 mi West 15.0 mph 27.6 mph 0.00 in Snow Light Snow
3:02 AM 28.0 °F 15.3 °F 24.1 °F 85% 29.73 in 1.5 mi West 18.4 mph 29.9 mph 0.00 in Snow Light Snow
3:09 AM 28.0 °F 16.1 °F 24.1 °F 85% 29.73 in 2.0 mi West 16.1 mph 27.6 mph 0.00 in Snow Light Snow
3:37 AM 27.0 °F 15.6 °F 24.1 °F 89% 29.73 in 2.5 mi West 13.8 mph - 0.00 in Snow Light Snow
3:41 AM 27.0 °F 14.7 °F 24.1 °F 89% 29.73 in 3.0 mi WNW 16.1 mph 23.0 mph 0.00 in Snow Light Snow
3:53 AM 27.0 °F 17.3 °F 23.0 °F 85% 29.79 in 7.0 mi WNW 10.4 mph - 0.00 in   Overcast
4:10 AM 27.0 °F 15.2 °F 23.0 °F 85% 29.74 in 5.0 mi WNW 15.0 mph 19.6 mph N/A   Overcast
4:45 AM 25.0 °F 11.7 °F 19.0 °F 78% 29.75 in 4.0 mi WNW 17.3 mph 24.2 mph N/A   Haze
4:53 AM 25.0 °F 13.6 °F 19.0 °F 78% 29.81 in 5.0 mi WNW 12.7 mph 24.2 mph N/A   Haze
5:20 AM 24.1 °F 13.1 °F 19.0 °F 81% 29.75 in 2.5 mi NW 11.5 mph 20.7 mph 0.00 in Snow Light Snow
5:27 AM 24.1 °F 14.4 °F 19.0 °F 81% 29.75 in 5.0 mi NW 9.2 mph - 0.00 in   Haze
5:39 AM 24.1 °F 13.1 °F 19.0 °F 81% 29.75 in 4.0 mi NW 11.5 mph - 0.00 in   Haze
5:53 AM 24.1 °F 14.4 °F 19.0 °F 81% 29.80 in 2.0 mi NW 9.2 mph 23.0 mph 0.00 in Snow Light Snow
6:07 AM 24.1 °F 13.7 °F 19.0 °F 81% 29.75 in 5.0 mi WNW 10.4 mph - 0.00 in   Haze
6:53 AM 23.0 °F 12.4 °F 18.0 °F 81% 29.82 in 10.0 mi WNW 10.4 mph - 0.00 in   Mostly Cloudy
7:34 AM 23.0 °F 12.4 °F 19.0 °F 85% 29.77 in 0.8 mi West 10.4 mph - 0.00 in Snow Light Snow
7:53 AM 23.0 °F 11.7 °F 19.9 °F 88% 29.83 in 0.5 mi West 11.5 mph - 0.00 in Fog , Snow Light Snow
8:15 AM 21.9 °F 9.8 °F 19.0 °F 89% 29.77 in 2.5 mi WNW 12.7 mph - 0.00 in Snow Light Snow
8:18 AM 21.9 °F 11.0 °F 19.0 °F 89% 29.77 in 5.0 mi West 10.4 mph - 0.00 in   Mostly Cloudy
8:39 AM 23.0 °F 11.1 °F 19.0 °F 85% 29.78 in 1.8 mi WNW 12.7 mph 20.7 mph 0.00 in Snow Light Snow
8:42 AM 23.0 °F 11.1 °F 19.0 °F 85% 29.78 in 0.5 mi NW 12.7 mph 25.3 mph 0.00 in Fog , Snow Light Snow
8:45 AM 23.0 °F 9.2 °F 19.0 °F 85% 29.78 in 0.2 mi WNW 17.3 mph 25.3 mph 0.00 in Fog , Snow Snow
8:53 AM 21.9 °F 9.8 °F 19.0 °F 89% 29.84 in 0.2 mi WNW 12.7 mph 24.2 mph 0.00 in Fog , Snow Light Snow
8:56 AM 21.9 °F 10.4 °F 19.0 °F 89% 29.78 in 0.5 mi WNW 11.5 mph 21.9 mph 0.00 in Fog , Snow Light Snow
9:03 AM 21.9 °F 8.7 °F 18.0 °F 85% 29.79 in 0.8 mi NW 15.0 mph 23.0 mph 0.00 in Snow Light Snow
9:08 AM 21.9 °F 9.2 °F 17.1 °F 82% 29.79 in 1.2 mi NW 13.8 mph - 0.00 in Snow Light Snow
9:15 AM 21.0 °F 6.2 °F 15.1 °F 78% 29.79 in 3.0 mi NNW 18.4 mph 27.6 mph 0.00 in   Haze
9:37 AM 19.9 °F 4.3 °F 12.0 °F 71% 29.80 in 1.8 mi NW 19.6 mph 31.1 mph 0.00 in   Haze
9:44 AM 19.9 °F 6.2 °F 12.0 °F 71% 29.80 in 3.0 mi NW 15.0 mph 28.8 mph 0.00 in   Haze
9:53 AM 19.9 °F 6.7 °F 12.0 °F 71% 29.87 in 8.0 mi NW 13.8 mph 20.7 mph 0.00 in   Overcast
10:53 AM 19.0 °F 6.1 °F 10.9 °F 71% 29.90 in 4.0 mi WNW 12.7 mph - N/A   Haze
11:31 AM 19.0 °F 5.0 °F 9.0 °F 65% 29.83 in 7.0 mi West 15.0 mph 24.2 mph N/A   Overcast
11:53 AM 18.0 °F 0.6 °F 8.1 °F 65% 29.90 in 4.0 mi West 23.0 mph 28.8 mph N/A   Haze
12:03 PM 19.0 °F 2.7 °F 7.0 °F 59% 29.83 in 2.5 mi West 20.7 mph 29.9 mph N/A   Haze
12:10 PM 19.0 °F 3.2 °F 7.0 °F 59% 29.83 in 4.0 mi West 19.6 mph 29.9 mph N/A   Haze
12:53 PM 19.0 °F 1.6 °F 6.1 °F 57% 29.90 in 9.0 mi WNW 24.2 mph 34.5 mph N/A   Mostly Cloudy
1:30 PM 17.1 °F 1.0 °F 6.1 °F 62% 29.84 in 4.0 mi WNW 18.4 mph 28.8 mph N/A   Haze
1:45 PM 17.1 °F 1.0 °F 5.0 °F 59% 29.85 in 10.0 mi West 18.4 mph 26.5 mph N/A   Overcast
1:53 PM 16.0 °F 0.6 °F 5.0 °F 62% 29.92 in 6.0 mi WNW 16.1 mph 25.3 mph N/A   Haze
2:14 PM 15.1 °F -0.6 °F 6.1 °F 68% 29.86 in 1.8 mi NW 16.1 mph 26.5 mph N/A   Haze
2:29 PM 14.0 °F -2.5 °F 5.0 °F 67% 29.87 in 3.0 mi WNW 17.3 mph 26.5 mph 0.00 in   Haze
2:53 PM 15.1 °F -0.6 °F 3.0 °F 59% 29.95 in 7.0 mi WNW 16.1 mph 25.3 mph 0.00 in   Overcast
3:10 PM 14.0 °F -2.5 °F 5.0 °F 67% 29.88 in 2.5 mi WNW 17.3 mph 27.6 mph N/A   Haze
3:17 PM 14.0 °F -1.4 °F 6.1 °F 71% 29.89 in 1.0 mi WNW 15.0 mph 28.8 mph N/A   Haze
3:24 PM 14.0 °F -0.8 °F 8.1 °F 77% 29.89 in 0.5 mi WNW 13.8 mph - 0.00 in Snow Snow
3:40 PM 12.9 °F -3.9 °F 5.0 °F 71% 29.90 in 2.0 mi WNW 17.3 mph 24.2 mph 0.00 in   Haze
3:53 PM 12.9 °F -6.1 °F 1.9 °F 62% 29.99 in 1.5 mi WNW 23.0 mph 33.4 mph 0.00 in   Haze
4:03 PM 12.0 °F -7.3 °F -0.0 °F 59% 29.92 in 1.5 mi WNW 23.0 mph 32.2 mph N/A   Haze
4:08 PM 12.0 °F -6.5 °F 1.0 °F 61% 29.92 in 3.0 mi WNW 20.7 mph 32.2 mph N/A   Haze
4:22 PM 12.0 °F -8.8 °F -0.0 °F 59% 29.92 in 1.8 mi WNW 27.6 mph 35.7 mph N/A   Haze
4:35 PM 10.9 °F -6.5 °F 1.0 °F 64% 29.93 in 3.0 mi WNW 17.3 mph 33.4 mph N/A   Haze
4:53 PM 10.0 °F -8.1 °F -0.9 °F 61% 30.03 in 4.0 mi WNW 18.4 mph 34.5 mph N/A   Haze
5:05 PM 10.0 °F -9.1 °F -0.9 °F 61% 29.95 in 2.5 mi WNW 20.7 mph 29.9 mph N/A   Haze
5:09 PM 9.0 °F -10.5 °F 1.0 °F 70% 29.95 in 0.8 mi NW 20.7 mph 29.9 mph 0.00 in Snow Light Snow
5:24 PM 9.0 °F -9.5 °F 1.0 °F 70% 29.96 in 1.2 mi NW 18.4 mph 24.2 mph 0.00 in Snow Light Snow
5:35 PM 8.1 °F -10.7 °F -0.0 °F 70% 29.97 in 3.0 mi NW 18.4 mph 28.8 mph 0.00 in   Haze
5:53 PM 8.1 °F -10.2 °F -0.0 °F 70% 30.07 in 3.0 mi NW 17.3 mph 28.8 mph 0.00 in   Haze
5:59 PM 7.0 °F -11.6 °F -0.9 °F 70% 29.98 in 1.8 mi WNW 17.3 mph 25.3 mph 0.00 in Snow Light Snow
6:31 PM 6.1 °F -13.8 °F -0.9 °F 73% 30.01 in 2.5 mi NW 19.6 mph 28.8 mph 0.00 in   Haze
6:49 PM 6.8 °F -12.9 °F -0.4 °F 72% 30.02 in 1.8 mi WNW 19.6 mph 29.9 mph 0.00 in   Haze
6:53 PM 5.0 °F -13.0 °F -2.0 °F 73% 30.12 in 2.5 mi NW 15.0 mph 27.6 mph 0.00 in   Haze
7:00 PM 5.0 °F -12.3 °F -2.9 °F 70% 30.02 in 9.0 mi NW 13.8 mph - N/A   Overcast
7:53 PM 5.0 °F -16.2 °F -4.0 °F 66% 30.14 in 7.0 mi WNW 21.9 mph 28.8 mph N/A   Overcast
8:53 PM 3.9 °F -16.1 °F -4.0 °F 70% 30.15 in 6.0 mi WNW 18.4 mph 33.4 mph N/A   Haze
9:53 PM 3.9 °F -16.1 °F -5.1 °F 66% 30.18 in 7.0 mi NW 18.4 mph 32.2 mph N/A   Overcast
10:31 PM 3.9 °F -13.7 °F -2.9 °F 73% 30.07 in 1.8 mi WNW 13.8 mph 20.7 mph N/A   Haze
10:40 PM 3.9 °F -11.3 °F -2.0 °F 76% 30.08 in 1.0 mi West 10.4 mph - 0.00 in Snow Light Snow
10:48 PM 3.2 °F -11.3 °F -0.4 °F 85% 30.08 in 0.8 mi WNW 9.2 mph - 0.00 in Snow Light Snow
10:53 PM 3.9 °F -11.3 °F -0.9 °F 80% 30.19 in 1.0 mi WNW 10.4 mph - 0.00 in Snow Light Snow
11:18 PM 3.9 °F -13.7 °F -2.0 °F 76% 30.09 in 0.8 mi WNW 13.8 mph 24.2 mph 0.00 in Snow Light Snow
11:25 PM 3.0 °F -15.5 °F -2.0 °F 80% 30.09 in 1.2 mi WNW 15.0 mph - 0.00 in   Haze
11:46 PM 1.9 °F -14.7 °F -4.0 °F 76% 30.09 in 3.0 mi WNW 11.5 mph 21.9 mph 0.00 in   Haze
11:53 PM 1.9 °F -16.9 °F -4.0 °F 76% 30.20 in 4.0 mi West 15.0 mph 21.9 mph 0.00 in   Haze